DLH994K LOWW-EDDL

Flight info

Callsign DLH994K
Flight time 1h 19m
Altitude 38000
Route BUWUT DCT DITIS DCT RAPET T843 VELIS DCT AMETU T852 EKSAK/N0374F260 T852 KULIX/N0363F240 T852 TINSA T854 DOMUX DOMUX1A
Aircraft A320/M-SDE3FGHIRWY/LB1

Departure

Time 2026-05-07 07:27
Airport Vienna International Airport (LOWW)

Arrival

Time 2026-05-07 08:46
Airport Düsseldorf Airport (EDDL)
Time Latitude Longitude Altitude Speed Heading
2026-05-07 06:41 48.11806 16.56501 584 ft 0 kts 25°
2026-05-07 07:01 48.11673 16.56897 627 ft 0 kts 24°
2026-05-07 07:14 48.11668 16.56893 610 ft 4 kts 25°
2026-05-07 07:14 48.11623 16.56849 618 ft 4 kts 52°
2026-05-07 07:14 48.11613 16.56817 613 ft 4 kts 105°
2026-05-07 07:15 48.11616 16.56804 617 ft 1 kts 115°
2026-05-07 07:15 48.11616 16.56803 617 ft 0 kts 115°
2026-05-07 07:20 48.11588 16.56893 610 ft 19 kts 115°
2026-05-07 07:21 48.11533 16.57058 621 ft 17 kts 116°
2026-05-07 07:21 48.11484 16.57210 624 ft 16 kts 116°
2026-05-07 07:21 48.11442 16.57341 623 ft 11 kts 116°
2026-05-07 07:21 48.11386 16.57380 612 ft 9 kts 194°
2026-05-07 07:22 48.11326 16.57339 616 ft 11 kts 205°
2026-05-07 07:22 48.11270 16.57373 620 ft 8 kts 122°
2026-05-07 07:22 48.11231 16.57492 614 ft 20 kts 115°
2026-05-07 07:22 48.11198 16.57578 617 ft 12 kts 137°
2026-05-07 07:23 48.11101 16.57619 616 ft 18 kts 137°
2026-05-07 07:23 48.11046 16.57757 620 ft 14 kts 124°
2026-05-07 07:23 48.11087 16.57783 610 ft 14 kts 335°
2026-05-07 07:23 48.11173 16.57678 619 ft 10 kts 286°
2026-05-07 07:24 48.11128 16.57586 622 ft 17 kts 171°
2026-05-07 07:24 48.11038 16.57643 621 ft 13 kts 195°
2026-05-07 07:24 48.11023 16.57633 621 ft 0 kts 206°
2026-05-07 07:25 48.10956 16.57584 615 ft 12 kts 206°
2026-05-07 07:25 48.10926 16.57510 612 ft 8 kts 272°
2026-05-07 07:25 48.10947 16.57434 623 ft 0 kts 295°
2026-05-07 07:26 48.10951 16.57421 619 ft 4 kts 295°
2026-05-07 07:27 48.11005 16.57250 616 ft 48 kts 296°
2026-05-07 07:27 48.11253 16.56491 616 ft 111 kts 296°
2026-05-07 07:27 48.11668 16.55220 667 ft 154 kts 297°
2026-05-07 07:27 48.12156 16.53742 1217 ft 163 kts 290°
2026-05-07 07:28 48.12144 16.52048 1917 ft 171 kts 259°
2026-05-07 07:28 48.11894 16.50209 2250 ft 192 kts 262°
2026-05-07 07:28 48.11658 16.48139 2602 ft 214 kts 264°
2026-05-07 07:28 48.11655 16.45806 3050 ft 236 kts 278°
2026-05-07 07:29 48.11907 16.43300 3701 ft 252 kts 279°
2026-05-07 07:29 48.12204 16.40662 4509 ft 260 kts 278°
2026-05-07 07:29 48.12511 16.37980 5436 ft 264 kts 278°
2026-05-07 07:29 48.12817 16.35231 6271 ft 272 kts 277°
2026-05-07 07:30 48.13122 16.32412 7098 ft 277 kts 276°
2026-05-07 07:30 48.13425 16.29561 8026 ft 277 kts 276°
2026-05-07 07:30 48.13724 16.26696 8956 ft 279 kts 276°
2026-05-07 07:30 48.14145 16.23883 9876 ft 285 kts 287°
2026-05-07 07:31 48.15100 16.21250 10675 ft 293 kts 304°
2026-05-07 07:31 48.16603 16.19029 11078 ft 319 kts 322°
2026-05-07 07:31 48.18641 16.17408 11463 ft 340 kts 331°
2026-05-07 07:31 48.20798 16.15858 12164 ft 346 kts 330°
2026-05-07 07:32 48.22976 16.14276 12929 ft 350 kts 330°
2026-05-07 07:32 48.25173 16.12663 13706 ft 353 kts 330°
2026-05-07 07:32 48.27390 16.11021 14382 ft 357 kts 329°
2026-05-07 07:32 48.29625 16.09360 15031 ft 361 kts 329°
2026-05-07 07:33 48.31889 16.07678 15681 ft 365 kts 329°
2026-05-07 07:33 48.34182 16.05971 16275 ft 370 kts 329°
2026-05-07 07:33 48.36504 16.04239 16897 ft 375 kts 329°
2026-05-07 07:33 48.38851 16.02483 17524 ft 379 kts 328°
2026-05-07 07:34 48.41229 16.00705 18142 ft 384 kts 328°
2026-05-07 07:34 48.43631 15.98910 18687 ft 388 kts 328°
2026-05-07 07:34 48.46058 15.97092 19203 ft 392 kts 328°
2026-05-07 07:34 48.48518 15.95246 19713 ft 397 kts 328°
2026-05-07 07:35 48.50999 15.93384 20224 ft 400 kts 327°
2026-05-07 07:35 48.53502 15.91495 20753 ft 403 kts 325°
2026-05-07 07:35 48.55821 15.89266 21230 ft 399 kts 315°
2026-05-07 07:35 48.57866 15.86468 21729 ft 394 kts 305°
2026-05-07 07:36 48.59547 15.83239 22229 ft 390 kts 296°
2026-05-07 07:36 48.61070 15.79834 22766 ft 393 kts 296°
2026-05-07 07:36 48.62604 15.76412 23356 ft 393 kts 296°
2026-05-07 07:36 48.64146 15.72985 23840 ft 395 kts 296°
2026-05-07 07:37 48.65701 15.69539 24268 ft 398 kts 296°
2026-05-07 07:37 48.67263 15.66066 24671 ft 401 kts 296°
2026-05-07 07:37 48.68831 15.62573 25092 ft 403 kts 296°
2026-05-07 07:37 48.70370 15.59023 25500 ft 402 kts 292°
2026-05-07 07:38 48.71731 15.55328 25896 ft 403 kts 291°
2026-05-07 07:38 48.73097 15.51601 26283 ft 406 kts 291°
2026-05-07 07:38 48.74469 15.47849 26653 ft 408 kts 291°
2026-05-07 07:38 48.75846 15.44086 27031 ft 411 kts 291°
2026-05-07 07:39 48.77238 15.40282 27425 ft 414 kts 290°
2026-05-07 07:39 48.78635 15.36457 27784 ft 417 kts 290°
2026-05-07 07:39 48.80014 15.32671 28163 ft 419 kts 291°
2026-05-07 07:39 48.81623 15.28926 28533 ft 428 kts 297°
2026-05-07 07:40 48.83367 15.25242 28895 ft 431 kts 297°
2026-05-07 07:40 48.85123 15.21536 29247 ft 433 kts 297°
2026-05-07 07:40 48.86884 15.17809 29601 ft 436 kts 297°
2026-05-07 07:40 48.88595 15.14182 29937 ft 438 kts 297°
2026-05-07 07:41 48.90401 15.10360 30252 ft 440 kts 297°
2026-05-07 07:41 48.92212 15.06597 30584 ft 443 kts 298°
2026-05-07 07:41 48.94056 15.02830 30837 ft 445 kts 298°
2026-05-07 07:41 48.95917 14.99055 31132 ft 447 kts 298°
2026-05-07 07:42 48.97789 14.95262 31417 ft 449 kts 298°
2026-05-07 07:42 48.99655 14.91465 31792 ft 447 kts 298°
2026-05-07 07:42 49.01512 14.87671 32187 ft 446 kts 298°
2026-05-07 07:42 49.03356 14.83887 32592 ft 444 kts 298°
2026-05-07 07:43 49.05189 14.80106 32985 ft 443 kts 298°
2026-05-07 07:43 49.07012 14.76327 33380 ft 442 kts 298°
2026-05-07 07:43 49.08828 14.72557 33773 ft 440 kts 298°
2026-05-07 07:43 49.10640 14.68790 34145 ft 440 kts 298°
2026-05-07 07:44 49.12451 14.65026 34396 ft 441 kts 298°
2026-05-07 07:44 49.14267 14.61252 34655 ft 441 kts 298°
2026-05-07 07:44 49.16086 14.57472 34915 ft 441 kts 299°
2026-05-07 07:44 49.17900 14.53695 35167 ft 441 kts 299°
2026-05-07 07:45 49.19714 14.49907 35418 ft 441 kts 299°
2026-05-07 07:45 49.21522 14.46121 35683 ft 441 kts 299°
2026-05-07 07:45 49.23329 14.42326 35941 ft 441 kts 299°
2026-05-07 07:45 49.25135 14.38534 36182 ft 441 kts 300°
2026-05-07 07:46 49.26943 14.34744 36430 ft 441 kts 300°
2026-05-07 07:46 49.28752 14.30948 36672 ft 442 kts 300°
2026-05-07 07:46 49.30562 14.27140 36875 ft 442 kts 300°
2026-05-07 07:46 49.32369 14.23332 37114 ft 442 kts 300°
2026-05-07 07:47 49.34172 14.19521 37367 ft 441 kts 300°
2026-05-07 07:47 49.35967 14.15718 37603 ft 440 kts 300°
2026-05-07 07:47 49.37763 14.11913 37833 ft 440 kts 301°
2026-05-07 07:48 49.41351 14.04297 37927 ft 439 kts 301°
2026-05-07 07:48 49.44923 13.96696 37957 ft 439 kts 301°
2026-05-07 07:49 49.48491 13.89097 37937 ft 438 kts 301°
2026-05-07 07:49 49.52049 13.81492 37934 ft 438 kts 301°
2026-05-07 07:50 49.55600 13.73867 37938 ft 438 kts 301°
2026-05-07 07:50 49.58551 13.67525 37944 ft 438 kts 301°
2026-05-07 07:51 49.62099 13.59877 37957 ft 439 kts 301°
2026-05-07 07:51 49.65643 13.52204 37972 ft 439 kts 301°
2026-05-07 07:52 49.69175 13.44539 37967 ft 438 kts 301°
2026-05-07 07:52 49.72701 13.36873 37966 ft 438 kts 301°
2026-05-07 07:53 49.76216 13.29192 37963 ft 437 kts 301°
2026-05-07 07:53 49.79723 13.21503 37959 ft 437 kts 301°
2026-05-07 07:54 49.83226 13.13808 37952 ft 437 kts 301°
2026-05-07 07:54 49.86726 13.06106 37930 ft 437 kts 301°
2026-05-07 07:55 49.90213 12.98391 37930 ft 437 kts 301°
2026-05-07 07:55 49.93700 12.90681 37924 ft 436 kts 301°
2026-05-07 07:56 49.97162 12.83023 37950 ft 436 kts 301°
2026-05-07 07:56 50.00643 12.75279 37924 ft 437 kts 301°
2026-05-07 07:57 50.04116 12.67511 37918 ft 438 kts 301°
2026-05-07 07:57 50.07610 12.59661 37917 ft 438 kts 301°
2026-05-07 07:58 50.11087 12.51867 37914 ft 438 kts 301°
2026-05-07 07:58 50.14555 12.44049 37936 ft 438 kts 301°
2026-05-07 07:59 50.17955 12.36170 37919 ft 436 kts 296°
2026-05-07 07:59 50.20062 12.27552 37909 ft 429 kts 281°
2026-05-07 08:00 50.21481 12.18491 37906 ft 430 kts 281°
2026-05-07 08:00 50.22906 12.09414 37909 ft 430 kts 281°
2026-05-07 08:01 50.24321 12.00327 37935 ft 431 kts 281°
2026-05-07 08:01 50.25740 11.91224 37921 ft 431 kts 281°
2026-05-07 08:02 50.27165 11.82111 37919 ft 432 kts 281°
2026-05-07 08:02 50.28575 11.72971 37920 ft 433 kts 281°
2026-05-07 08:03 50.29975 11.63816 37924 ft 433 kts 281°
2026-05-07 08:03 50.31353 11.54714 37943 ft 433 kts 281°
2026-05-07 08:04 50.32722 11.45525 37931 ft 434 kts 281°
2026-05-07 08:04 50.34081 11.36340 37924 ft 433 kts 281°
2026-05-07 08:05 50.35430 11.27133 37928 ft 434 kts 281°
2026-05-07 08:05 50.36779 11.17915 37937 ft 434 kts 281°
2026-05-07 08:06 50.38124 11.08691 37936 ft 435 kts 281°
2026-05-07 08:06 50.39464 10.99451 37931 ft 435 kts 281°
2026-05-07 08:07 50.40799 10.90198 37938 ft 435 kts 281°
2026-05-07 08:07 50.42121 10.80929 37937 ft 436 kts 280°
2026-05-07 08:08 50.43421 10.71715 37944 ft 436 kts 280°
2026-05-07 08:08 50.44746 10.62433 37950 ft 436 kts 281°
2026-05-07 08:09 50.46099 10.53098 37950 ft 436 kts 281°
2026-05-07 08:09 50.47770 10.44023 37949 ft 438 kts 289°
2026-05-07 08:10 50.50002 10.35113 37954 ft 438 kts 289°
2026-05-07 08:10 50.52210 10.26190 37956 ft 439 kts 289°
2026-05-07 08:11 50.54412 10.17257 37960 ft 438 kts 289°
2026-05-07 08:11 50.56604 10.08318 37964 ft 438 kts 289°
2026-05-07 08:12 50.58787 9.99361 37966 ft 438 kts 289°
2026-05-07 08:12 50.60969 9.90410 37964 ft 438 kts 289°
2026-05-07 08:13 50.63142 9.81454 37975 ft 438 kts 289°
2026-05-07 08:13 50.65303 9.72488 37973 ft 438 kts 289°
2026-05-07 08:14 50.67463 9.63521 37878 ft 438 kts 289°
2026-05-07 08:14 50.68538 9.59031 37606 ft 437 kts 289°
2026-05-07 08:14 50.69623 9.54491 37340 ft 437 kts 289°
2026-05-07 08:14 50.70678 9.50069 37077 ft 437 kts 289°
2026-05-07 08:15 50.71747 9.45585 36815 ft 437 kts 289°
2026-05-07 08:15 50.72814 9.41104 36560 ft 437 kts 289°
2026-05-07 08:15 50.73882 9.36614 36316 ft 437 kts 289°
2026-05-07 08:15 50.74939 9.32133 36067 ft 435 kts 289°
2026-05-07 08:16 50.75991 9.27658 35820 ft 433 kts 289°
2026-05-07 08:16 50.77037 9.23217 35575 ft 431 kts 289°
2026-05-07 08:16 50.78081 9.18789 35329 ft 429 kts 289°
2026-05-07 08:16 50.79118 9.14385 35089 ft 427 kts 289°
2026-05-07 08:17 50.80163 9.09949 34848 ft 424 kts 289°
2026-05-07 08:17 50.81186 9.05587 34612 ft 422 kts 289°
2026-05-07 08:17 50.82201 9.01241 34382 ft 420 kts 289°
2026-05-07 08:17 50.83375 8.97035 34146 ft 419 kts 298°
2026-05-07 08:18 50.84946 8.93162 33910 ft 417 kts 307°
2026-05-07 08:18 50.86745 8.89569 33626 ft 415 kts 307°
2026-05-07 08:18 50.88540 8.85998 33344 ft 413 kts 307°
2026-05-07 08:18 50.90323 8.82446 33077 ft 411 kts 307°
2026-05-07 08:19 50.92092 8.78918 32809 ft 408 kts 307°
2026-05-07 08:19 50.93847 8.75406 32534 ft 405 kts 307°
2026-05-07 08:19 50.95589 8.71910 32266 ft 403 kts 308°
2026-05-07 08:19 50.97315 8.68440 31945 ft 398 kts 308°
2026-05-07 08:20 50.99024 8.65005 31466 ft 395 kts 308°
2026-05-07 08:20 51.00745 8.61629 30999 ft 392 kts 313°
2026-05-07 08:20 51.02717 8.58680 30532 ft 388 kts 322°
2026-05-07 08:20 51.04933 8.56262 30076 ft 385 kts 327°
2026-05-07 08:21 51.07166 8.53956 29587 ft 381 kts 327°
2026-05-07 08:21 51.09373 8.51666 29169 ft 376 kts 327°
2026-05-07 08:21 51.11543 8.49402 28748 ft 371 kts 327°
2026-05-07 08:21 51.13689 8.47166 28347 ft 366 kts 327°
2026-05-07 08:22 51.15808 8.44960 27937 ft 361 kts 327°
2026-05-07 08:22 51.17899 8.42785 27528 ft 357 kts 327°
2026-05-07 08:22 51.19969 8.40630 27119 ft 354 kts 327°
2026-05-07 08:22 51.22010 8.38505 26719 ft 350 kts 327°
2026-05-07 08:23 51.24042 8.36386 26301 ft 348 kts 327°
2026-05-07 08:23 51.26056 8.34278 25891 ft 345 kts 327°
2026-05-07 08:23 51.28054 8.32174 25455 ft 343 kts 327°
2026-05-07 08:23 51.30044 8.30077 25027 ft 342 kts 327°
2026-05-07 08:24 51.32023 8.27991 24588 ft 340 kts 327°
2026-05-07 08:24 51.33998 8.25910 24144 ft 340 kts 327°
2026-05-07 08:24 51.35967 8.23838 23708 ft 339 kts 327°
2026-05-07 08:24 51.37914 8.21792 23220 ft 338 kts 327°
2026-05-07 08:25 51.39877 8.19734 22757 ft 336 kts 327°
2026-05-07 08:25 51.41822 8.17690 22341 ft 333 kts 327°
2026-05-07 08:25 51.43755 8.15654 21883 ft 332 kts 326°
2026-05-07 08:25 51.45682 8.13621 21443 ft 330 kts 327°
2026-05-07 08:26 51.49111 8.08855 20554 ft 328 kts 303°
2026-05-07 08:26 51.50056 8.05535 20116 ft 329 kts 285°
2026-05-07 08:26 51.50334 8.01901 19675 ft 330 kts 269°
2026-05-07 08:27 51.49938 7.98281 19236 ft 331 kts 255°
2026-05-07 08:27 51.49307 7.94718 18789 ft 332 kts 255°
2026-05-07 08:27 51.48676 7.91151 18349 ft 333 kts 256°
2026-05-07 08:27 51.48047 7.87575 17875 ft 332 kts 256°
2026-05-07 08:28 51.47420 7.84023 17470 ft 330 kts 255°
2026-05-07 08:28 51.46790 7.80494 17059 ft 328 kts 255°
2026-05-07 08:28 51.46161 7.76983 16658 ft 327 kts 255°
2026-05-07 08:28 51.45540 7.73493 16263 ft 325 kts 255°
2026-05-07 08:29 51.44922 7.70011 15869 ft 324 kts 255°
2026-05-07 08:29 51.44315 7.66610 15483 ft 322 kts 255°
2026-05-07 08:29 51.43696 7.63171 15103 ft 321 kts 255°
2026-05-07 08:29 51.43075 7.59742 14717 ft 320 kts 255°
2026-05-07 08:30 51.42457 7.56323 14333 ft 319 kts 255°
2026-05-07 08:30 51.41665 7.53014 13959 ft 319 kts 243°
2026-05-07 08:30 51.40465 7.50002 13708 ft 314 kts 237°
2026-05-07 08:30 51.39263 7.47128 13445 ft 308 kts 237°
2026-05-07 08:31 51.38085 7.44292 13210 ft 304 kts 238°
2026-05-07 08:31 51.36934 7.41519 12975 ft 302 kts 237°
2026-05-07 08:31 51.35757 7.38685 12725 ft 301 kts 237°
2026-05-07 08:31 51.34596 7.35899 12492 ft 301 kts 238°
2026-05-07 08:32 51.33437 7.33126 12250 ft 299 kts 237°
2026-05-07 08:32 51.32285 7.30371 12010 ft 298 kts 238°
2026-05-07 08:32 51.31135 7.27617 11780 ft 297 kts 237°
2026-05-07 08:32 51.29987 7.24872 11546 ft 297 kts 238°
2026-05-07 08:33 51.28840 7.22133 11310 ft 296 kts 238°
2026-05-07 08:33 51.27702 7.19415 11118 ft 290 kts 238°
2026-05-07 08:33 51.26972 7.17658 11037 ft 283 kts 241°
2026-05-07 08:33 51.26334 7.14824 10904 ft 270 kts 267°
2026-05-07 08:34 51.26621 7.11962 10765 ft 258 kts 296°
2026-05-07 08:34 51.27691 7.09751 10569 ft 251 kts 322°
2026-05-07 08:34 51.29094 7.08093 10367 ft 251 kts 327°
2026-05-07 08:34 51.30688 7.07092 10151 ft 246 kts 355°
2026-05-07 08:35 51.32358 7.07511 9944 ft 245 kts 25°
2026-05-07 08:35 51.33672 7.09219 9737 ft 247 kts 51°
2026-05-07 08:35 51.34708 7.11428 9547 ft 249 kts 51°
2026-05-07 08:35 51.35742 7.13636 9365 ft 248 kts 51°
2026-05-07 08:36 51.36775 7.15833 9181 ft 247 kts 51°
2026-05-07 08:36 51.37806 7.18026 9001 ft 246 kts 51°
2026-05-07 08:36 51.38833 7.20213 8805 ft 245 kts 51°
2026-05-07 08:36 51.39853 7.22389 8638 ft 244 kts 51°
2026-05-07 08:37 51.40871 7.24560 8458 ft 243 kts 52°
2026-05-07 08:37 51.41883 7.26725 8283 ft 243 kts 52°
2026-05-07 08:37 51.42891 7.28885 8100 ft 241 kts 52°
2026-05-07 08:37 51.43896 7.31036 7927 ft 241 kts 51°
2026-05-07 08:38 51.44899 7.33181 7733 ft 240 kts 51°
2026-05-07 08:38 51.45990 7.35271 7140 ft 249 kts 38°
2026-05-07 08:38 51.47529 7.36555 6541 ft 255 kts 12°
2026-05-07 08:38 51.49303 7.36519 5909 ft 262 kts 344°
2026-05-07 08:39 51.50889 7.35050 5288 ft 270 kts 316°
2026-05-07 08:39 51.51813 7.32415 4819 ft 275 kts 285°
2026-05-07 08:39 51.51791 7.29424 4687 ft 268 kts 256°
2026-05-07 08:39 51.50900 7.26869 4551 ft 260 kts 231°
2026-05-07 08:40 51.49807 7.24650 4411 ft 247 kts 237°
2026-05-07 08:40 51.48876 7.22404 4285 ft 236 kts 239°
2026-05-07 08:40 51.48018 7.20212 4143 ft 229 kts 240°
2026-05-07 08:40 51.47175 7.18059 4011 ft 227 kts 240°
2026-05-07 08:41 51.46327 7.15921 3895 ft 227 kts 239°
2026-05-07 08:41 51.45471 7.13799 3743 ft 227 kts 239°
2026-05-07 08:41 51.44608 7.11688 3625 ft 227 kts 239°
2026-05-07 08:41 51.43739 7.09580 3497 ft 227 kts 238°
2026-05-07 08:42 51.42866 7.07481 3366 ft 226 kts 238°
2026-05-07 08:42 51.42058 7.05338 3239 ft 225 kts 242°
2026-05-07 08:42 51.41215 7.03233 3125 ft 224 kts 237°
2026-05-07 08:42 51.40292 7.01216 3014 ft 224 kts 235°
2026-05-07 08:43 51.39353 6.99227 3015 ft 224 kts 235°
2026-05-07 08:43 51.38412 6.97236 2998 ft 225 kts 234°
2026-05-07 08:43 51.37467 6.95236 2807 ft 224 kts 235°
2026-05-07 08:43 51.36531 6.93258 2515 ft 222 kts 235°
2026-05-07 08:44 51.35601 6.91293 2212 ft 221 kts 234°
2026-05-07 08:44 51.34690 6.89368 1914 ft 216 kts 234°
2026-05-07 08:44 51.33828 6.87553 1655 ft 196 kts 235°
2026-05-07 08:44 51.33033 6.85877 1384 ft 181 kts 235°
2026-05-07 08:45 51.32292 6.84315 1171 ft 165 kts 236°
2026-05-07 08:45 51.31639 6.82942 922 ft 149 kts 233°
2026-05-07 08:45 51.31034 6.81667 709 ft 139 kts 236°
2026-05-07 08:45 51.30461 6.80461 532 ft 135 kts 234°
2026-05-07 08:46 51.29900 6.79268 354 ft 134 kts 238°
2026-05-07 08:46 51.29344 6.78098 163 ft 132 kts 236°
2026-05-07 08:46 51.28857 6.77083 127 ft 92 kts 233°
2026-05-07 08:46 51.28573 6.76485 128 ft 43 kts 233°
2026-05-07 08:47 51.28397 6.76127 126 ft 30 kts 227°
2026-05-07 08:47 51.28237 6.75978 126 ft 17 kts 201°
2026-05-07 08:47 51.28122 6.75897 126 ft 19 kts 206°
2026-05-07 08:47 51.28003 6.75827 129 ft 11 kts 173°
2026-05-07 08:48 51.27992 6.75906 129 ft 7 kts 87°
2026-05-07 08:48 51.27957 6.76013 129 ft 15 kts 102°
2026-05-07 08:48 51.27944 6.76116 130 ft 7 kts 100°
2026-05-07 08:48 51.27942 6.76179 130 ft 0 kts 91°